Weather History for Morganton, NC

Change the Weather History Date:

Monday, March 10, 2014

  Actual Average (KHKY) Record (KHKY)
Temperature  
Mean Temperature 52 °F -  
Max Temperature 75 °F 59 °F 76 °F (1974)
Min Temperature 29 °F 36 °F 18 °F (1960)
Degree Days  
Heating Degree Days 13    
Growing Degree Days 2 (Base 50)    
Moisture  
Dew Point 28 °F    
Average Humidity 47    
Maximum Humidity 88    
Minimum Humidity 12    
Precipitation  
Precipitation 0.00 in - - ()
Sea Level Pressure  
Sea Level Pressure 29.97 in    
Wind  
Wind Speed 3 mph (West)    
Max Wind Speed 13 mph    
Max Gust Speed 20 mph    
Visibility 10 miles    
Events      
Averages and records for this station are not official NWS values.
T = Trace of Precipitation, MM = Missing Value Source: NWS Daily Summary

Daily Weather History Graph

Daily Weather History Graph

Search for Another Location

Airport:

Trip Planner

Search our weather history database for the weather conditions in past years. The results will help you decide how hot, cold, wet, or windy it might be!

Date:

Astronomy

Mar. 10, 2014 Rise Set
Actual Time 7:44 AM EDT 7:29 PM EDT
Civil Twilight 7:18 AM EDT 7:55 PM EDT
Nautical Twilight 6:49 AM EDT 8:24 PM EDT
Astronomical Twilight 6:19 AM EDT 8:54 PM EDT
Moon 2:19 PM EDT (3/10) 3:47 AM EDT (3/10)
Length of Visible Light 12h 36m
Length of Day
11h 45m
Waxing Gibbous, 70% of the Moon is Illuminated
Mar 10
Waxing Gibbous
Mar 16
Full
Mar 23
Last Quarter
Mar 30
New
Apr 7
First Quarter

Hourly Weather History & Observations

Time (EDT) Temp. Windchill Dew Point Humidity Pressure Visibility Wind Dir Wind Speed Gust Speed Precip Events Conditions
12:15 AM 35.8 °F - 26.4 °F 69% 30.10 in 10.0 mi Calm Calm - N/A   Clear
12:35 AM 34.5 °F 30.4 °F 25.7 °F 70% 30.08 in 10.0 mi SSE 4.6 mph - N/A   Clear
12:55 AM 32.7 °F - 25.5 °F 75% 30.07 in 10.0 mi Calm Calm - N/A   Clear
1:15 AM 33.3 °F - 25.0 °F 72% 30.07 in 10.0 mi Calm Calm - N/A   Clear
1:35 AM 32.9 °F - 24.3 °F 71% 30.07 in 10.0 mi Calm Calm - N/A   Clear
1:55 AM 34.7 °F 30.6 °F 25.2 °F 68% 30.07 in 10.0 mi West 4.6 mph - N/A   Clear
2:15 AM 33.3 °F 30.2 °F 25.5 °F 73% 30.06 in 10.0 mi WNW 3.5 mph - N/A   Clear
2:35 AM 33.1 °F - 26.1 °F 75% 30.05 in 10.0 mi Calm Calm - N/A   Clear
2:55 AM 33.8 °F - 26.2 °F 74% 30.05 in 10.0 mi Calm Calm - N/A   Clear
3:15 AM 31.6 °F - 25.9 °F 79% 30.05 in 10.0 mi Calm Calm - N/A   Clear
3:35 AM 32.0 °F - 27.0 °F 82% 30.04 in 10.0 mi Calm Calm - N/A   Clear
3:55 AM 32.2 °F - 26.4 °F 79% 30.03 in 10.0 mi Calm Calm - N/A   Clear
4:15 AM 31.3 °F - 27.0 °F 84% 30.02 in 10.0 mi Calm Calm - N/A   Clear
4:35 AM 31.1 °F - 26.8 °F 84% 30.02 in 10.0 mi Calm Calm - N/A   Clear
4:55 AM 32.4 °F 29.1 °F 27.3 °F 82% 30.02 in 10.0 mi WSW 3.5 mph - N/A   Clear
5:15 AM 31.1 °F - 26.4 °F 83% 30.02 in 10.0 mi Calm Calm - N/A   Clear
5:35 AM 31.5 °F - 26.8 °F 83% 30.02 in 10.0 mi Calm Calm - N/A   Clear
5:55 AM 31.6 °F - 26.8 °F 82% 30.02 in 10.0 mi Calm Calm - N/A   Clear
6:15 AM 30.2 °F - 26.6 °F 86% 30.02 in 10.0 mi Calm Calm - N/A   Clear
6:35 AM 30.6 °F - 26.4 °F 85% 30.02 in 10.0 mi Calm Calm - N/A   Clear
6:55 AM 31.5 °F - 26.8 °F 83% 30.02 in 10.0 mi Calm Calm - N/A   Clear
7:15 AM 29.5 °F 25.9 °F 26.2 °F 88% 30.02 in 10.0 mi NNE 3.5 mph - N/A   Clear
7:35 AM 30.6 °F 25.8 °F 26.2 °F 84% 30.02 in 10.0 mi NW 4.6 mph - N/A   Clear
7:55 AM 32.2 °F 26.7 °F 25.5 °F 76% 30.01 in 10.0 mi WNW 5.8 mph - N/A   Clear
8:15 AM 31.8 °F - 26.4 °F 80% 30.01 in 10.0 mi Calm Calm - N/A   Clear
8:35 AM 40.3 °F - 26.2 °F 57% 30.02 in 10.0 mi Calm Calm - N/A   Clear
8:55 AM 43.7 °F - 32.7 °F 65% 30.02 in 10.0 mi Calm Calm - N/A   Clear
9:15 AM 51.6 °F - 30.4 °F 44% 30.02 in 10.0 mi Calm Calm - N/A   Clear
9:35 AM 55.4 °F - 26.4 °F 33% 30.02 in 10.0 mi Calm Calm - N/A   Clear
9:55 AM 57.6 °F - 27.9 °F 32% 30.03 in 10.0 mi Calm Calm - N/A   Clear
10:15 AM 57.7 °F - 30.6 °F 36% 30.03 in 10.0 mi Calm Calm - N/A   Clear
10:35 AM 59.0 °F - 30.9 °F 35% 30.02 in 10.0 mi WSW 4.6 mph - N/A   Clear
10:55 AM 60.3 °F - 32.0 °F 34% 30.02 in 10.0 mi Calm Calm - N/A   Clear
11:15 AM 61.7 °F - 33.3 °F 34% 30.01 in 10.0 mi Calm Calm - N/A   Clear
11:35 AM 63.5 °F - 32.5 °F 31% 30.00 in 10.0 mi NW 4.6 mph - N/A   Clear
11:50 AM 65.1 °F - 33.4 °F 31% 30.00 in 10.0 mi NW 4.6 mph - N/A   Clear
12:15 PM 66.2 °F - 32.5 °F 29% 30.00 in 10.0 mi WSW 8.1 mph - N/A   Clear
12:35 PM 66.7 °F - 33.3 °F 29% 29.99 in 10.0 mi SW 9.2 mph 16.1 mph N/A   Clear
12:55 PM 67.3 °F - 32.7 °F 28% 29.98 in 10.0 mi SW 11.5 mph 16.1 mph N/A   Clear
1:15 PM 67.3 °F - 32.7 °F 28% 29.97 in 10.0 mi WSW 11.5 mph 19.6 mph N/A   Clear
1:35 PM 68.5 °F - 33.6 °F 28% 29.96 in 10.0 mi SW 10.4 mph 17.3 mph N/A   Clear
1:55 PM 69.3 °F - 33.3 °F 26% 29.95 in 10.0 mi WSW 12.7 mph 18.4 mph N/A   Clear
2:15 PM 70.0 °F - 33.4 °F 26% 29.94 in 10.0 mi WSW 10.4 mph 16.1 mph N/A   Clear
2:35 PM 70.2 °F - 33.8 °F 26% 29.92 in 10.0 mi SW 10.4 mph 16.1 mph N/A   Clear
2:55 PM 71.6 °F - 33.6 °F 25% 29.92 in 10.0 mi South 8.1 mph - N/A   Clear
3:15 PM 71.6 °F - 33.8 °F 25% 29.90 in 10.0 mi WSW 6.9 mph - N/A   Clear
3:35 PM 72.7 °F - 33.3 °F 24% 29.90 in 10.0 mi SW 9.2 mph - N/A   Clear
3:55 PM 73.4 °F - 27.3 °F 18% 29.89 in 10.0 mi West 10.4 mph 18.4 mph N/A   Clear
4:15 PM 73.9 °F - 29.3 °F 19% 29.88 in 10.0 mi SW 5.8 mph 17.3 mph N/A   Clear
4:30 PM 75.2 °F - 23.0 °F 14% 29.88 in 10.0 mi West 9.2 mph 18.4 mph N/A   Clear
4:55 PM 74.5 °F - 29.7 °F 19% 29.87 in 10.0 mi SW 8.1 mph 18.4 mph N/A   Clear
5:15 PM 75.7 °F - 23.0 °F 14% 29.86 in 10.0 mi West 10.4 mph 19.6 mph N/A   Clear
5:35 PM 74.1 °F - 20.1 °F 13% 29.87 in 10.0 mi West 8.1 mph - N/A   Clear
5:55 PM 72.9 °F - 21.9 °F 15% 29.87 in 10.0 mi West 9.2 mph - N/A   Clear
6:15 PM 73.9 °F - 17.2 °F 12% 29.87 in 10.0 mi WSW 9.2 mph - N/A   Clear
6:35 PM 70.9 °F - 19.2 °F 14% 29.87 in 10.0 mi WSW 4.6 mph - N/A   Clear
6:55 PM 71.1 °F - 20.5 °F 15% 29.88 in 10.0 mi SW 3.5 mph - N/A   Clear
7:15 PM 70.7 °F - 20.5 °F 15% 29.88 in 10.0 mi WNW 5.8 mph - N/A   Clear
7:35 PM 67.3 °F - 22.8 °F 19% 29.88 in 10.0 mi Calm Calm - N/A   Clear
7:55 PM 62.2 °F - 25.7 °F 25% 29.88 in 10.0 mi NNW 4.6 mph - N/A   Clear
8:15 PM 64.8 °F - 24.3 °F 22% 29.89 in 10.0 mi NNW 5.8 mph - N/A   Clear
8:35 PM 63.9 °F - 23.7 °F 22% 29.90 in 10.0 mi NW 4.6 mph - N/A   Clear
8:55 PM 60.1 °F - 25.0 °F 26% 29.90 in 10.0 mi Calm Calm - N/A   Clear
9:15 PM 62.2 °F - 24.8 °F 24% 29.90 in 10.0 mi WNW 6.9 mph - N/A   Clear
9:35 PM 62.6 °F - 25.5 °F 24% 29.89 in 10.0 mi NW 8.1 mph - N/A   Clear
9:55 PM 59.7 °F - 27.0 °F 29% 29.89 in 10.0 mi Calm Calm - N/A   Clear
10:15 PM 54.9 °F - 27.9 °F 35% 29.90 in 10.0 mi East 3.5 mph - N/A   Clear
10:35 PM 52.7 °F - 29.3 °F 41% 29.90 in 10.0 mi Calm Calm - N/A   Clear
10:55 PM 46.9 °F - 31.5 °F 55% 29.90 in 10.0 mi Calm Calm - N/A   Clear
11:15 PM 44.8 °F - 31.8 °F 60% 29.89 in 10.0 mi Calm Calm - N/A   Clear
11:35 PM 43.0 °F - 31.1 °F 63% 29.89 in 10.0 mi Calm Calm - N/A   Clear
11:55 PM 43.9 °F - 30.9 °F 60% 29.88 in 10.0 mi Calm Calm - N/A   Clear